Wind_Speed
13 13 13 13 13 14 14 14 15 15 15 16 16 16 16 16 17 17 17 16 16 15 15 14 13 13 13 13 13 13 13 12 12 12 12 13 13 12 13 15 15 15 17 18 20 21 20 21 22 21 20 19 20 19 19 18 19 20 20 20 20 18 18 19 17 11 7 5 2 7 7 7 4 2 2 4 7 7 5 4 4 4 5 6 7 7 7 6
12 12 12 13 13 13 13 14 14 15 15 15 16 16 17 17 17 17 17 17 16 16 15 14 13 13 13 13 12 12 12 12 11 11 11 12 12 12 12 14 13 14 16 18 19 20 21 22 23 21 21 21 20 20 19 19 19 20 20 21 21 18 16 16 15 10 6 3 2 5 5 6 4 1 1 3 5 6 6 5 4 5 7 8 7 8 7 6
11 11 11 11 11 12 12 13 14 14 15 15 16 16 16 17 17 17 17 17 16 16 15 14 13 13 12 12 11 11 11 11 10 10 11 11 11 12 12 12 12 13 16 18 18 20 22 24 23 23 22 22 21 21 20 20 20 21 22 23 21 16 14 13 12 8 4 4 2 1 3 4 4 5 4 5 5 5 6 6 7 7 9 10 9 9 7 6
10 10 10 10 10 11 11 12 13 13 14 15 15 16 16 17 17 17 17 16 16 16 15 13 13 12 11 11 10 10 10 10 9 9 9 8 9 11 11 11 11 13 16 17 18 20 23 24 23 23 22 21 22 22 23 22 21 22 24 24 19 14 14 12 8 5 4 5 5 4 4 3 6 6 7 7 7 6 7 8 7 8 11 13 11 8 6 7
11 11 10 10 10 10 10 11 12 13 13 14 14 15 16 16 17 17 17 16 15 15 14 13 12 11 11 10 9 9 9 7 7 8 7 6 7 8 10 11 11 12 15 17 18 20 23 23 23 23 22 22 23 24 23 21 20 22 24 23 18 14 14 9 5 4 3 4 5 5 7 8 8 8 10 12 11 9 9 9 8 9 10 11 11 9 8 8
11 11 11 10 10 10 10 10 11 11 12 13 14 14 15 15 16 16 16 15 15 14 13 12 11 10 10 9 8 8 8 6 6 7 6 5 6 7 9 11 11 12 14 16 17 20 22 22 22 23 22 22 23 23 21 18 18 21 22 22 18 14 12 7 5 5 3 4 5 5 8 9 9 11 13 14 14 14 14 12 11 12 11 10 10 10 9 8
12 11 11 11 11 11 11 11 10 10 11 12 13 13 14 14 14 14 14 14 14 13 12 12 11 10 9 9 8 8 8 7 7 8 7 7 8 8 8 9 11 11 12 14 16 19 21 21 21 21 20 20 21 20 18 17 17 20 20 19 15 11 10 6 5 5 5 6 5 7 10 10 11 13 14 14 16 16 16 15 14 14 13 11 9 8 8 9
12 12 12 11 11 11 11 11 11 11 10 11 12 12 13 13 13 13 14 14 13 13 12 12 10 9 9 8 8 8 7 7 8 9 9 9 9 9 8 9 10 10 11 12 15 18 18 19 19 19 18 17 18 17 17 17 17 20 19 14 11 11 11 9 9 9 7 7 6 10 13 13 13 14 15 16 17 17 17 16 16 13 10 8 7 7 8 10
13 13 13 12 12 11 11 11 11 11 11 11 11 11 12 12 12 12 13 13 12 12 12 11 10 9 8 8 8 7 7 7 6 8 9 9 8 8 9 9 10 11 12 13 15 17 16 17 17 17 17 15 16 15 15 15 16 17 15 12 12 13 12 11 13 13 10 8 8 12 16 16 15 14 16 16 15 16 16 15 16 13 8 6 6 7 7 9
13 13 13 13 12 12 12 11 11 11 11 11 11 11 11 11 11 11 12 12 12 12 11 11 10 9 8 8 7 7 7 7 5 6 8 8 7 8 8 9 10 12 13 13 14 14 14 15 14 15 16 13 13 14 13 13 13 13 13 13 15 14 11 10 12 13 13 12 11 14 17 17 15 17 18 16 13 12 11 11 12 11 7 6 6 6 6 7
13 13 13 13 12 12 11 11 11 11 11 11 11 11 10 10 10 11 11 11 11 12 11 10 10 9 8 8 7 7 7 7 5 6 8 7 7 7 7 8 10 12 13 13 15 14 15 15 13 13 14 12 12 12 9 9 11 11 12 14 14 14 13 11 11 11 13 13 13 15 17 16 15 17 18 16 12 8 7 7 9 8 6 6 6 6 6 7
12 12 12 12 12 11 11 11 11 11 11 10 10 10 10 11 10 11 11 11 11 11 11 10 9 9 8 7 7 7 8 7 5 6 7 6 6 6 7 9 11 13 13 16 19 18 16 13 13 13 12 13 12 10 7 7 10 9 10 13 13 15 16 14 12 11 13 14 15 16 19 19 17 16 15 13 11 8 8 9 9 9 7 6 6 6 7 8
11 11 11 11 11 10 10 10 11 11 10 10 10 10 10 11 11 11 11 11 11 11 10 10 9 8 7 6 7 8 6 4 5 6 6 5 5 5 7 10 13 15 17 21 21 20 15 10 13 14 12 13 11 9 7 6 9 9 10 13 13 16 17 16 15 16 16 18 20 19 21 22 19 15 13 11 10 9 10 11 11 9 7 6 6 6 6 7
9 9 9 9 9 10 10 10 10 10 10 9 9 9 9 11 13 12 11 11 11 11 10 10 9 8 6 5 7 7 3 2 4 6 5 4 5 5 6 11 15 18 21 24 21 18 14 9 13 15 12 12 11 10 8 6 8 9 10 12 12 14 17 16 15 16 16 17 20 19 23 24 20 17 15 12 10 10 11 12 11 10 8 7 6 4 4 4
9 8 8 8 9 9 9 10 9 9 9 9 8 8 8 10 13 13 13 12 11 11 11 10 9 8 6 5 7 5 1 1 2 4 5 5 5 5 6 11 16 19 22 23 20 17 13 10 13 14 11 10 10 10 9 8 8 9 10 9 9 11 13 11 9 12 11 11 13 15 21 23 19 15 14 12 9 9 10 11 11 10 9 8 6 4 2 1
9 8 8 8 8 9 9 9 9 9 9 8 8 7 6 8 10 12 13 13 12 12 11 10 9 7 5 6 6 3 1 1 2 3 5 5 6 7 8 11 15 17 20 21 19 17 14 12 11 12 10 8 10 10 9 9 9 9 8 6 7 9 11 8 4 8 8 9 11 12 17 19 14 10 8 8 8 8 8 8 9 10 11 9 6 3 0 1
9 9 9 9 8 8 9 9 9 9 8 7 5 4 5 6 7 10 12 13 13 13 12 11 9 7 6 7 6 4 3 2 2 3 6 6 6 8 9 12 13 16 18 19 18 18 18 14 10 11 10 10 11 11 10 10 9 8 5 6 7 9 14 13 11 9 7 10 12 13 17 18 15 11 6 6 7 8 8 8 10 12 12 10 6 3 2 3
10 10 10 9 9 9 9 8 8 7 7 5 5 5 5 5 6 7 10 13 14 14 13 11 10 8 7 9 8 6 5 3 3 6 8 8 8 10 11 13 14 16 17 17 18 18 16 13 11 11 11 12 13 13 11 8 6 4 3 6 9 12 15 15 17 13 8 13 14 15 17 19 18 16 11 9 9 10 10 12 14 15 13 9 6 4 4 3
10 10 10 10 9 9 9 8 7 6 6 6 6 6 4 5 6 7 9 10 11 12 12 11 12 11 11 12 11 10 9 7 6 8 9 9 10 12 14 15 15 15 14 15 16 15 12 10 11 12 13 13 14 14 12 6 3 3 3 6 9 13 16 15 17 16 5 11 16 17 18 20 19 17 16 13 10 12 15 17 17 17 13 9 6 4 4 3
11 10 10 10 9 9 9 8 7 5 6 7 6 4 4 6 7 9 10 9 9 12 13 13 14 14 15 15 14 13 12 9 8 8 7 10 11 11 14 15 16 15 13 13 13 11 9 9 10 11 12 12 11 9 8 6 5 3 3 8 11 15 19 16 14 15 6 7 14 16 17 18 17 15 16 14 12 16 19 18 17 16 14 10 7 5 5 5
11 11 11 10 9 8 8 8 7 5 7 7 5 4 6 9 9 11 13 11 11 14 15 15 15 16 17 17 16 14 12 10 10 10 8 9 10 10 14 15 16 15 15 15 13 9 9 8 7 9 10 9 7 5 4 5 5 4 6 10 12 14 18 16 11 13 7 3 8 11 12 13 12 11 13 13 13 16 19 19 17 16 14 10 9 7 6 5
11 11 10 10 9 8 8 8 6 6 8 7 6 8 9 10 11 13 15 11 9 14 16 15 16 17 20 18 17 15 13 12 12 13 11 10 10 10 13 15 14 14 15 15 12 9 8 6 9 10 8 7 6 5 5 4 5 6 8 10 13 13 14 13 7 8 6 2 1 2 6 8 8 7 8 11 12 12 15 18 16 15 14 12 11 8 6 4
11 11 10 10 10 8 8 7 6 6 8 8 10 11 10 11 13 14 16 14 7 10 14 13 13 17 21 18 16 16 12 12 12 12 11 9 9 9 12 14 13 13 14 13 10 9 8 8 10 7 5 7 7 8 8 6 7 7 9 12 14 11 10 9 6 4 4 5 5 3 4 7 8 6 7 11 14 13 14 18 16 15 14 12 11 7 5 3
12 11 10 10 10 9 8 7 6 7 9 11 12 11 11 11 13 13 14 17 10 7 10 10 10 16 21 16 16 15 11 11 11 10 9 8 8 9 12 12 12 14 14 11 8 10 7 8 5 1 2 4 6 9 10 8 7 7 10 13 12 7 5 7 6 5 2 4 4 1 3 5 5 4 7 12 15 15 16 19 19 17 16 14 11 8 6 4
13 12 11 10 10 9 9 8 8 9 11 14 13 11 11 9 11 12 13 16 13 7 10 10 8 12 19 19 18 15 12 12 12 10 8 7 6 9 11 11 12 14 13 10 9 10 7 3 4 6 5 6 7 9 12 8 6 8 11 12 10 7 3 5 5 5 5 2 3 1 2 5 6 5 4 8 13 16 18 19 21 21 19 17 14 11 9 7
14 13 12 11 10 10 9 9 10 12 14 15 14 11 10 7 9 11 12 16 13 5 8 9 7 9 18 22 18 14 12 11 11 11 9 7 5 7 9 11 13 12 11 9 8 10 8 3 7 10 9 8 8 9 11 10 9 11 11 10 10 8 5 5 5 3 4 1 3 1 1 2 3 5 4 3 6 12 18 20 22 24 21 18 16 13 11 11
16 15 14 12 11 11 11 10 11 14 16 16 14 11 9 7 8 11 12 12 8 2 4 6 7 7 15 22 19 15 10 7 11 14 11 9 7 8 9 11 11 10 9 9 8 8 8 6 9 12 10 8 8 9 11 12 11 11 10 9 7 7 5 4 4 2 2 2 1 0 2 3 2 2 4 2 0 6 13 19 23 26 23 20 17 15 13 12
17 17 16 14 13 11 11 12 12 15 17 17 14 11 9 9 8 10 8 4 2 0 1 3 7 6 11 20 21 16 9 4 9 12 12 12 11 11 12 11 9 9 9 9 10 8 6 6 9 12 8 10 9 7 10 11 12 12 11 9 4 3 2 2 4 3 2 3 2 2 4 3 4 2 2 4 3 3 8 14 20 24 25 22 19 17 16 14
17 18 18 17 15 13 12 13 13 15 17 18 15 13 11 9 7 7 5 1 2 1 2 2 6 5 6 15 21 19 13 8 5 4 8 13 14 14 14 12 10 12 11 12 14 11 10 10 11 12 8 12 12 8 8 9 10 10 10 10 6 4 3 3 5 5 4 4 3 2 5 3 3 4 4 4 3 2 4 9 16 22 26 25 21 19 18 16
17 18 19 18 18 16 14 13 14 15 15 16 15 14 12 9 6 4 2 2 2 1 0 1 2 5 5 10 18 22 20 15 10 7 6 10 14 16 16 15 13 13 13 14 16 16 15 14 12 10 7 12 14 11 9 7 6 6 7 7 7 7 7 5 6 6 4 2 3 4 6 5 1 3 6 6 4 5 5 6 11 19 26 26 22 21 19 17
18 19 19 18 19 19 16 14 15 15 14 15 14 14 11 9 7 4 2 4 4 2 2 4 3 4 6 8 12 16 18 18 16 14 11 9 13 19 19 17 16 14 14 15 15 15 16 16 13 10 9 12 13 12 9 6 6 7 5 4 6 7 7 6 5 6 3 0 3 6 7 6 3 3 7 7 6 8 8 7 7 13 23 27 24 22 21 18
19 20 20 19 19 20 17 16 17 16 15 15 13 12 12 9 8 10 7 4 3 1 1 3 3 2 4 7 11 14 16 17 15 15 15 13 14 19 21 19 18 16 14 15 15 13 14 14 12 10 12 13 13 11 8 7 9 9 6 6 7 2 1 3 2 2 2 2 5 5 5 4 4 6 9 10 10 10 8 7 7 9 17 24 23 21 20 18
19 21 21 20 19 19 17 18 20 18 15 15 13 12 12 7 7 15 16 7 4 3 1 3 4 5 4 5 8 12 15 17 16 14 14 15 15 17 20 19 19 16 11 12 14 12 9 9 9 9 11 14 14 12 9 7 10 13 10 8 7 2 3 2 3 0 1 3 7 6 3 2 4 4 8 11 13 14 12 9 9 10 13 20 22 20 19 20
19 21 21 20 19 17 17 20 22 20 17 16 14 12 13 10 8 14 15 11 10 7 5 7 6 7 9 6 4 7 10 14 15 15 15 16 16 18 20 21 21 18 13 10 11 10 8 7 9 11 10 10 13 14 11 7 8 13 13 11 9 5 3 2 3 2 2 3 6 5 2 2 4 3 3 6 9 11 11 11 11 12 13 17 21 23 23 24
18 20 21 21 19 17 17 21 23 22 19 18 16 16 18 17 15 14 12 11 10 8 6 6 6 7 11 12 10 5 7 12 14 16 18 18 19 19 20 22 21 20 18 14 11 10 9 6 8 11 10 7 9 12 12 9 7 10 12 11 11 9 6 4 3 4 4 3 2 3 3 5 8 7 6 3 3 3 5 8 9 11 14 16 20 25 27 27
16 19 19 20 19 18 19 22 24 24 22 20 19 20 22 20 15 12 9 8 7 5 6 4 3 4 6 12 14 8 7 12 13 14 17 18 20 21 21 22 22 22 20 17 14 12 10 8 8 9 8 8 10 10 10 9 7 8 10 10 8 7 8 7 3 3 4 3 2 4 6 9 10 9 10 9 4 5 8 8 8 11 16 19 24 27 27 26
15 16 17 18 19 20 21 22 24 25 24 23 23 23 23 21 17 14 10 8 8 7 10 6 2 2 4 7 11 10 9 8 9 13 15 14 14 16 19 21 20 21 21 18 17 14 10 9 9 10 8 7 10 11 10 10 9 8 10 10 8 6 8 8 3 3 3 1 3 2 5 11 11 7 11 12 9 10 12 11 10 10 12 14 18 19 17 16
12 13 15 18 19 20 22 23 24 26 26 25 26 25 23 22 20 18 15 13 12 10 10 8 4 4 5 5 6 9 11 7 6 11 15 13 10 11 14 15 13 16 20 18 18 17 13 10 9 11 9 4 8 13 10 10 11 9 9 11 9 5 7 10 5 2 2 1 2 1 3 8 11 7 10 14 14 14 15 13 11 10 9 9 11 13 14 17
9 9 13 16 16 19 22 23 23 26 27 27 27 25 24 23 20 18 17 15 14 10 9 8 4 4 5 5 6 7 10 10 7 7 13 15 13 12 15 13 7 7 12 15 18 17 16 13 7 9 11 6 8 13 9 7 8 7 7 10 10 6 7 9 7 5 5 3 2 0 2 4 9 9 10 14 15 15 14 13 12 13 14 16 18 17 16 16
6 8 13 13 13 17 21 22 23 25 27 28 27 25 23 22 20 18 15 13 12 10 10 10 6 6 7 6 6 6 8 13 10 5 10 14 14 15 18 17 10 5 3 8 15 16 16 16 10 8 9 7 8 8 6 5 5 6 7 6 8 9 9 8 6 6 6 4 4 2 1 4 9 8 7 10 14 14 13 11 12 15 16 16 15 12 11 8
3 7 12 11 11 15 19 22 23 24 26 26 26 24 22 20 20 18 14 12 13 11 12 13 10 9 10 11 10 8 5 8 11 7 8 10 11 11 14 17 16 12 6 4 9 15 16 15 13 10 7 7 9 7 4 2 2 5 4 2 6 10 10 8 5 5 6 5 5 5 2 7 10 8 5 6 8 10 10 10 13 15 15 14 13 11 9 7
3 6 9 10 11 13 17 20 21 22 24 24 22 19 16 16 18 18 14 12 13 12 13 15 13 11 14 15 13 11 9 8 10 9 10 9 11 11 11 12 15 19 19 12 7 10 13 12 12 10 5 6 6 5 4 2 3 4 3 4 7 9 10 9 5 7 10 6 5 7 3 7 11 10 9 8 7 9 10 11 12 12 12 13 14 13 12 11
4 7 8 10 12 13 14 17 18 18 19 18 16 12 10 11 13 13 11 9 10 11 11 13 13 11 13 13 9 10 12 12 11 9 10 11 11 11 12 11 10 15 22 23 14 9 10 10 10 9 6 7 7 4 3 3 4 4 2 5 8 7 8 8 6 11 14 10 8 7 2 7 13 11 10 11 10 10 11 12 11 10 11 12 13 14 14 15
5 10 10 10 14 16 16 16 17 17 17 15 12 9 10 10 8 7 7 7 8 10 8 9 11 11 11 13 11 9 10 10 11 11 11 12 12 13 15 13 8 8 14 19 18 13 10 9 10 8 6 6 5 3 5 5 4 4 6 6 6 6 6 4 6 11 12 11 12 7 3 9 14 12 11 11 11 10 11 11 11 10 11 11 13 14 14 13
5 11 12 10 15 20 20 17 15 14 14 12 9 9 9 7 7 8 8 8 8 9 8 9 12 13 12 12 11 10 11 10 12 15 13 13 12 13 16 15 10 7 8 10 13 14 13 11 10 8 4 4 4 4 7 9 5 3 4 3 2 5 6 5 7 8 7 10 12 9 8 13 15 14 12 11 11 11 11 11 11 11 11 11 12 12 12 11
4 11 13 10 12 18 18 15 12 10 7 9 8 8 7 7 8 8 8 9 10 9 9 10 12 12 12 13 10 8 10 10 13 16 14 13 13 11 13 16 14 11 10 10 10 11 10 10 10 8 5 7 9 8 9 12 9 4 3 4 3 0 2 3 5 4 6 10 10 10 14 17 16 13 11 11 10 9 10 11 12 12 12 12 12 12 12 12
3 8 11 9 4 8 12 13 13 11 8 9 9 7 7 9 10 9 9 9 9 9 8 8 11 11 10 12 12 9 7 7 10 15 16 16 15 12 12 14 15 13 12 12 12 11 8 7 9 7 6 7 9 8 7 8 7 5 5 7 7 6 5 2 1 2 7 9 8 12 18 18 16 14 11 11 10 9 10 11 11 12 12 13 14 14 14 13
4 4 5 6 4 3 6 10 13 12 10 10 9 7 7 9 10 9 9 8 7 8 8 7 9 10 8 9 11 12 10 7 10 16 18 17 15 13 13 14 14 15 14 12 14 14 11 8 8 7 6 8 9 8 8 7 7 5 5 6 7 8 8 5 3 4 6 6 8 17 22 20 18 17 15 14 14 13 12 13 13 13 13 14 15 16 16 15
4 3 2 2 3 4 2 7 12 13 12 12 11 8 6 7 8 7 7 6 5 6 6 6 6 7 7 7 8 10 11 10 11 15 17 16 16 15 14 13 12 14 15 14 13 14 12 9 8 9 8 8 8 9 10 11 11 8 6 5 7 7 7 6 4 6 6 6 13 21 22 21 20 19 17 17 16 16 15 15 16 16 16 15 15 15 16 16
7 7 7 5 4 5 1 4 4 5 9 12 12 10 8 5 3 2 3 4 4 4 4 4 4 5 6 6 6 8 10 11 12 14 14 13 13 14 13 11 10 12 13 13 11 11 11 9 8 10 10 10 10 10 10 10 10 9 7 7 7 7 6 5 6 8 8 9 15 18 19 20 20 18 17 17 17 17 17 17 18 17 17 16 15 15 15 15
8 10 11 8 6 6 2 2 1 1 3 9 11 11 10 7 6 4 4 5 4 3 4 3 4 4 3 3 4 6 8 10 12 14 15 13 11 10 10 8 8 9 10 10 9 9 10 9 9 10 10 10 10 10 9 9 8 7 6 7 7 7 7 7 8 9 10 12 15 16 17 19 19 18 17 17 17 16 17 18 19 18 18 17 17 16 16 16
8 9 10 9 8 8 6 4 5 5 1 5 9 12 11 9 7 4 3 5 4 3 3 3 4 3 3 3 2 4 6 8 9 11 13 14 14 13 10 8 9 10 10 10 9 9 9 9 10 11 10 10 11 10 8 6 5 4 5 6 8 9 9 10 11 11 12 16 18 18 18 19 20 19 18 17 17 17 17 18 19 19 20 19 19 19 18 18
Wind_Direction
293 291 288 286 283 280 277 275 272 270 269 268 267 266 266 265 265 265 264 263 263 263 264 266 270 274 275 275 275 276 275 273 269 268 266 261 257 250 243 239 232 224 218 212 209 211 210 206 207 208 208 209 210 212 210 209 210 212 215 221 228 226 219 223 225 221 202 199 109 82 73 38 39 138 132 185 212 250 282 273 259 276 293 305 307 312 317 307
297 295 293 289 286 282 278 274 272 270 268 267 266 265 265 264 264 264 263 263 262 261 263 266 270 273 274 275 275 276 277 275 273 272 268 262 258 252 246 242 233 221 217 213 207 208 208 206 205 205 206 206 207 209 208 208 211 215 219 226 233 232 229 228 230 227 210 212 115 84 42 16 5 321 282 230 241 258 267 288 294 296 304 309 308 303 304 302
302 302 299 296 293 286 281 276 272 269 267 266 265 264 263 263 263 262 263 262 260 260 261 264 268 271 273 274 275 277 277 276 275 272 267 263 259 253 245 241 232 218 216 213 207 206 207 207 203 203 205 203 203 205 206 208 212 216 221 231 237 238 240 238 243 251 243 232 201 24 339 354 342 304 290 260 255 256 258 297 312 308 313 313 307 302 300 295
305 306 307 307 304 298 290 282 276 271 268 266 265 264 262 262 262 262 262 260 258 257 258 261 265 269 271 273 274 276 276 275 274 269 266 266 261 254 245 237 227 215 213 212 208 206 207 207 202 201 203 202 202 203 207 208 212 217 222 231 237 241 242 233 243 252 231 230 239 290 283 294 321 287 278 281 276 274 275 298 303 299 308 307 302 301 300 298
305 308 310 312 312 310 303 294 284 276 271 268 266 264 262 261 261 261 261 258 257 255 257 260 264 269 271 271 272 274 273 269 263 259 260 268 267 259 247 234 225 215 211 209 207 208 208 207 203 200 201 200 202 205 208 208 213 220 224 231 231 229 232 213 205 210 189 230 250 288 288 290 297 277 279 285 285 288 288 294 293 293 297 294 292 292 292 295
305 308 310 312 313 313 311 304 294 284 277 271 267 265 262 261 260 260 259 257 256 256 257 260 265 269 271 271 270 268 262 251 249 251 251 264 275 269 250 233 224 214 208 207 207 209 208 206 204 201 200 200 204 207 205 204 212 220 224 231 227 224 231 208 186 195 204 250 256 279 285 289 290 281 281 282 282 284 287 289 283 281 281 279 283 286 293 299
304 306 308 309 310 310 311 310 305 296 286 277 271 267 264 261 260 258 256 256 255 256 259 261 265 267 270 270 264 262 255 244 246 251 253 260 269 267 253 237 226 213 205 205 208 212 208 205 203 201 200 199 205 206 200 197 207 217 221 226 226 226 238 230 214 219 238 253 259 271 268 273 284 284 279 280 281 280 283 283 274 272 276 276 278 289 305 315
302 303 304 305 306 307 308 309 310 306 298 288 278 271 266 261 259 257 255 253 252 254 258 260 264 265 266 265 259 261 257 247 246 252 255 256 260 260 254 242 226 212 202 201 207 210 206 202 200 197 195 197 205 203 196 199 208 217 216 214 219 230 241 250 249 242 245 251 262 270 265 267 276 281 280 284 285 283 283 277 267 267 274 274 279 296 309 317
300 301 301 301 302 303 304 305 307 308 305 295 285 276 269 263 258 256 254 252 251 253 256 259 262 262 262 261 258 258 251 243 247 256 256 258 262 256 249 237 219 205 197 197 199 201 200 197 196 199 198 199 202 196 195 206 216 220 215 217 234 241 243 252 254 244 242 247 257 266 267 267 267 271 276 280 285 288 282 267 257 259 268 272 279 295 303 315
299 299 298 297 297 298 300 301 303 306 305 300 290 281 272 263 256 254 252 251 252 254 256 259 260 260 259 258 256 249 240 237 246 260 260 261 258 247 237 225 212 199 193 193 188 185 185 185 193 204 202 199 197 195 201 215 222 221 223 239 251 252 250 259 261 250 245 246 248 259 266 265 260 263 267 272 280 284 270 251 248 250 261 270 272 289 299 308
300 298 296 295 294 294 296 297 300 302 303 301 293 283 271 260 253 251 252 251 253 255 256 258 259 259 259 259 255 242 236 233 235 253 254 242 227 221 215 209 199 190 187 180 166 161 166 176 192 200 197 200 200 202 210 223 225 224 237 252 257 256 257 261 265 257 252 250 246 257 266 259 252 259 262 266 273 266 249 250 253 251 255 264 269 284 294 296
301 301 298 296 293 292 292 293 296 298 300 299 294 285 269 257 251 249 251 251 252 253 254 256 258 260 260 262 253 239 240 236 226 242 242 216 204 201 193 191 183 179 174 160 154 159 166 181 194 190 196 206 203 206 212 225 229 230 252 262 258 261 263 259 258 257 255 251 246 256 263 250 245 257 258 258 261 245 242 259 261 257 255 260 273 286 293 289
306 307 304 300 296 293 290 289 292 295 296 296 293 286 270 256 250 248 250 251 251 251 252 254 254 257 260 259 246 240 244 228 210 229 232 206 198 185 178 183 173 166 162 156 160 168 172 187 195 192 204 205 198 199 195 212 230 233 252 262 265 267 262 252 249 251 251 252 251 257 261 249 241 247 247 250 254 239 246 262 261 259 256 257 273 292 302 289
312 315 313 308 302 296 291 288 289 292 294 294 290 284 269 253 247 246 248 250 250 249 248 250 249 250 252 246 243 246 250 182 191 221 225 200 191 168 168 180 168 164 165 165 170 173 176 194 197 198 209 206 202 206 203 213 227 234 245 256 268 270 263 256 255 254 250 253 254 254 255 251 245 244 247 255 255 241 252 266 261 256 254 257 264 280 308 289
313 318 320 317 310 302 293 288 286 287 290 290 285 280 268 255 247 243 244 247 249 247 245 244 244 245 237 224 239 253 266 156 191 217 212 189 179 149 156 179 172 172 173 173 175 174 182 201 202 207 216 215 215 219 223 224 223 240 249 251 261 272 279 271 257 260 258 259 258 247 247 249 248 249 249 250 246 239 251 262 254 245 243 246 246 252 293 262
308 314 318 319 318 311 300 289 282 280 281 283 281 276 265 256 247 241 241 243 246 246 241 239 238 238 224 208 220 230 207 212 219 216 199 187 171 142 156 181 179 180 177 176 179 181 191 202 208 218 225 227 229 226 231 233 230 242 254 261 261 281 304 308 297 287 275 268 263 243 239 242 243 249 242 235 233 232 242 247 240 233 232 231 226 232 232 159
303 307 309 313 317 317 312 298 282 274 273 273 265 251 245 244 241 239 237 237 240 240 235 232 226 219 206 185 185 199 217 221 219 197 179 176 160 139 154 173 179 185 180 180 188 193 202 210 221 233 232 232 231 226 234 243 239 238 257 271 269 294 311 319 336 320 251 241 251 237 234 235 239 249 243 242 244 235 230 219 216 221 223 218 210 201 146 139
302 303 304 306 308 313 317 309 290 270 257 247 233 229 234 244 251 245 238 235 236 237 233 227 219 207 190 176 170 178 185 169 170 181 170 160 150 136 146 166 184 193 189 195 201 203 211 221 233 238 235 229 221 218 222 229 234 246 289 281 282 306 312 318 333 327 246 229 238 228 230 236 244 252 251 263 261 237 214 201 209 222 221 210 200 180 143 139
300 301 301 301 301 305 309 311 300 265 236 223 223 231 243 261 267 261 254 249 247 245 237 228 215 197 179 172 167 164 156 135 141 169 169 160 156 147 151 165 179 185 189 201 203 201 208 220 229 227 219 213 207 210 216 217 252 278 307 300 303 316 313 313 331 336 289 225 228 222 226 237 244 246 247 260 254 220 205 204 216 224 218 204 190 169 134 117
297 299 299 297 296 296 296 303 300 264 225 215 216 227 257 260 260 266 264 262 268 258 241 233 220 197 180 170 165 158 146 132 131 147 168 171 169 167 166 166 166 169 170 179 186 189 203 224 232 216 194 187 191 204 218 231 254 274 306 311 315 316 309 309 333 350 345 216 219 218 225 238 244 244 247 250 228 205 202 209 220 219 211 202 184 163 135 118
294 296 297 295 290 287 285 289 292 263 226 215 210 222 252 259 265 277 275 265 262 262 250 239 228 204 183 174 173 168 161 157 141 138 161 179 182 184 179 173 169 167 159 164 178 187 208 229 212 180 165 166 182 201 217 226 238 277 307 313 319 316 308 306 332 2 6 221 218 221 227 235 243 247 244 232 211 201 201 207 214 211 207 195 172 160 152 147
293 292 293 292 288 280 275 278 280 258 230 213 215 234 252 269 281 288 291 281 247 254 257 244 233 208 187 183 186 184 181 173 153 151 168 186 196 195 186 182 176 166 161 170 182 194 214 202 156 153 162 170 174 183 200 225 251 289 301 303 315 319 312 306 323 17 40 85 92 195 208 211 221 227 215 205 205 203 199 204 211 214 210 190 174 176 176 172
289 289 289 287 284 275 266 266 263 247 228 220 231 245 254 268 281 291 302 304 261 243 258 251 238 209 191 192 199 200 197 186 171 162 170 189 203 204 190 185 177 169 175 183 187 210 208 149 133 146 171 188 191 195 211 241 257 275 286 295 311 320 317 311 305 343 38 58 44 75 149 196 207 190 172 188 206 209 207 210 212 218 216 194 183 198 212 216
283 285 285 282 281 274 261 252 245 233 222 229 240 249 256 266 287 303 307 305 292 254 257 253 237 210 195 197 208 207 207 203 189 170 170 185 198 205 194 184 182 180 187 196 210 224 188 118 96 135 176 219 226 216 219 240 258 263 270 287 310 314 307 322 309 286 320 32 12 29 117 154 168 151 158 180 195 201 210 215 214 215 211 197 191 194 201 220
275 278 279 277 275 271 260 242 235 223 215 234 247 251 262 282 307 314 310 305 301 269 252 249 235 208 193 201 211 204 208 211 192 179 181 170 180 206 197 189 194 188 186 200 225 229 191 112 321 290 278 270 261 231 214 219 246 255 264 282 303 298 282 329 328 278 263 348 22 322 131 119 105 86 125 170 190 200 210 215 215 215 207 196 198 199 196 195
269 268 271 272 269 266 259 242 229 219 217 237 253 254 267 299 316 318 316 307 303 264 241 237 219 205 194 202 209 197 212 219 181 178 188 171 191 218 200 197 200 190 191 208 233 243 232 268 298 294 285 264 261 246 216 206 228 246 267 286 296 284 270 307 328 308 257 202 67 38 193 147 92 68 74 121 182 204 212 214 214 214 209 201 203 205 201 193
266 263 262 263 262 260 255 244 228 222 226 241 255 256 268 297 310 320 322 310 301 240 232 221 197 203 198 202 205 190 206 223 182 187 192 184 204 213 205 211 206 196 206 226 243 247 251 279 297 303 288 242 242 247 219 206 222 247 270 288 295 282 273 287 290 280 241 200 98 207 224 256 284 52 31 14 161 212 216 217 215 212 209 207 208 209 206 197
264 260 258 256 256 254 248 246 234 229 236 245 253 257 270 291 302 310 319 329 323 153 155 188 180 191 197 200 204 197 202 213 188 196 197 199 214 216 218 222 218 221 221 229 238 238 256 284 305 315 288 233 227 230 216 213 233 253 262 269 281 284 273 225 220 224 197 204 255 238 214 255 279 274 326 316 299 250 221 220 220 217 213 211 210 212 212 205
264 260 256 251 250 249 244 245 241 238 242 245 251 259 269 286 295 298 304 317 294 230 119 152 177 185 196 198 206 213 218 208 186 196 197 206 218 221 229 229 229 239 234 236 245 250 264 278 302 318 280 224 216 221 229 236 250 254 247 246 240 239 236 196 211 211 168 184 230 225 193 207 276 259 255 279 266 222 221 222 220 219 218 215 212 215 215 208
265 260 256 250 247 245 242 242 242 242 245 244 250 258 262 272 272 268 262 236 270 292 342 0 165 187 199 198 206 216 221 217 222 248 230 214 217 219 231 238 235 240 241 247 256 260 266 273 286 298 263 221 221 233 243 242 244 238 237 239 228 235 237 216 211 197 162 183 198 164 169 183 241 257 247 260 249 236 255 247 227 222 219 216 215 217 216 206
264 260 257 251 246 244 239 238 240 239 242 242 245 251 251 254 248 217 204 243 256 305 24 58 79 198 213 210 213 215 218 220 227 239 239 231 224 220 227 234 229 232 243 248 251 255 260 267 274 269 240 223 226 234 235 225 220 227 247 228 206 221 224 212 194 173 160 203 163 138 142 170 195 227 241 256 259 257 263 264 244 219 212 213 215 216 215 207
263 259 257 251 246 245 238 235 238 234 234 235 235 241 237 232 227 216 220 256 248 215 90 80 51 316 244 225 225 221 221 225 227 230 237 245 237 222 220 226 224 223 235 240 242 250 252 257 264 253 231 221 224 230 223 221 220 223 234 207 196 202 198 223 221 165 189 169 147 138 138 169 210 234 251 259 262 260 256 246 224 193 195 204 209 211 210 206
263 258 256 252 246 243 235 232 236 234 230 229 227 227 220 206 220 228 231 239 204 177 11 336 309 290 259 220 221 228 231 233 229 225 232 242 241 225 217 221 222 221 228 230 231 236 236 237 237 231 223 217 223 230 221 217 217 218 227 216 197 136 82 251 259 293 259 170 147 149 160 193 205 231 264 267 270 269 261 246 224 204 194 192 193 195 195 197
265 259 254 251 247 240 230 228 233 234 228 225 219 211 204 199 221 234 235 240 237 245 299 312 293 248 225 225 241 243 243 239 231 227 227 229 232 226 218 217 216 219 231 228 218 214 207 212 213 213 219 217 224 235 232 228 220 219 227 227 218 201 160 207 226 196 198 167 148 151 172 206 177 174 275 267 273 275 262 248 228 215 209 195 187 186 187 191
269 261 255 250 245 238 227 223 228 230 226 222 216 207 205 212 227 234 239 248 251 262 273 280 288 251 229 243 254 257 255 246 238 232 226 226 229 227 223 220 217 223 232 227 215 206 203 212 214 217 225 216 219 232 229 226 224 215 213 215 221 221 205 192 188 185 172 134 137 160 144 152 161 147 118 130 243 242 211 218 209 199 200 193 184 183 185 188
271 265 259 252 243 234 226 221 224 227 226 222 216 213 217 223 230 233 240 242 234 265 283 271 283 266 239 239 237 241 262 248 241 236 222 218 228 230 227 226 227 229 230 225 214 201 201 216 218 220 220 205 210 217 218 225 222 203 199 197 197 206 208 196 146 131 135 111 190 178 138 145 158 160 144 139 177 186 156 153 161 180 189 183 177 179 183 188
273 268 264 254 240 228 222 220 221 224 224 222 219 222 228 231 233 233 235 227 221 276 305 309 339 292 256 235 227 245 270 249 230 233 217 205 218 225 222 226 233 233 229 227 222 207 203 214 211 208 203 203 214 207 201 214 210 205 210 199 180 175 193 190 136 78 85 95 219 193 136 156 162 174 182 185 203 195 169 150 147 169 180 172 172 178 189 202
276 266 260 252 238 223 219 219 219 219 221 222 223 228 233 233 233 235 239 241 247 274 288 283 318 316 268 237 227 257 267 236 207 229 224 213 218 216 214 223 235 235 230 229 227 218 212 215 217 218 219 228 222 208 197 202 210 220 216 196 188 180 178 176 153 118 141 168 238 342 91 168 183 199 210 216 221 209 199 195 193 202 215 224 231 234 234 238
287 259 252 250 237 220 217 218 217 217 219 221 224 229 234 234 234 238 245 252 259 268 266 255 284 313 277 232 225 263 259 225 201 234 232 225 229 224 214 213 208 223 233 231 230 224 212 213 216 211 214 214 202 202 195 191 205 208 184 187 200 196 174 175 172 166 164 159 197 207 44 176 198 211 217 220 220 212 212 221 229 234 232 233 240 241 234 238
288 241 242 242 228 215 215 217 215 214 218 222 227 231 235 238 237 239 247 256 257 251 244 239 241 272 283 268 244 258 253 225 208 233 239 222 225 229 223 222 213 188 202 219 221 215 202 207 205 182 193 188 164 170 172 175 187 170 157 181 198 185 170 170 178 176 162 156 160 151 316 198 188 200 212 209 214 220 226 233 234 227 219 217 222 225 222 230
266 228 238 229 212 210 212 214 214 214 218 223 228 233 239 244 242 239 241 248 252 245 235 236 237 246 262 277 267 242 228 217 205 229 250 210 205 224 224 226 224 209 197 194 205 201 193 199 202 184 167 151 141 137 143 170 218 187 173 187 189 185 178 166 170 179 165 166 168 148 180 201 183 184 190 183 205 218 218 216 211 205 201 202 200 193 192 198
223 215 238 220 206 212 212 213 214 215 219 225 230 234 241 247 247 246 240 233 239 238 230 232 236 245 255 267 263 228 201 189 192 226 255 222 212 228 218 213 215 212 218 233 230 200 195 201 200 186 149 129 135 125 113 94 278 248 235 208 192 195 196 188 187 180 166 159 161 138 136 189 177 174 182 181 186 189 184 189 196 195 195 198 197 194 201 225
208 204 226 209 201 208 204 206 213 215 219 225 227 229 239 244 246 244 234 227 232 229 225 228 230 243 248 239 221 195 182 174 182 215 243 224 211 210 195 188 195 206 220 233 235 206 195 202 193 173 135 128 139 145 151 170 229 230 183 168 175 181 199 209 211 188 174 165 160 134 113 193 179 171 182 188 190 192 194 201 208 215 217 217 225 232 236 244
211 202 213 199 192 194 190 195 209 214 215 213 215 232 246 243 240 234 226 236 243 234 236 238 224 219 219 211 203 194 181 172 182 199 210 202 191 187 187 183 181 199 218 228 230 218 209 209 195 167 117 112 136 182 207 194 180 155 133 135 144 146 163 184 184 180 175 176 178 165 164 192 183 178 185 191 196 201 206 213 218 230 239 240 246 250 251 248
223 205 214 200 184 186 190 200 208 209 215 216 222 246 251 234 235 250 248 245 244 241 246 239 218 207 203 205 207 207 199 185 181 188 198 204 201 201 205 203 199 210 223 227 226 223 221 216 205 189 150 148 191 226 221 211 202 134 130 138 135 138 137 135 153 170 182 189 192 187 182 184 183 184 187 191 201 205 207 214 218 226 236 241 244 246 245 246
250 212 221 213 182 176 180 192 191 174 191 212 209 222 225 203 205 225 233 230 230 235 239 227 211 204 203 204 199 187 184 177 175 182 186 188 187 191 203 206 208 218 230 224 209 208 213 206 204 214 201 176 182 191 202 208 211 209 224 271 290 139 106 121 149 177 180 175 182 195 194 186 178 181 187 191 202 214 219 221 220 221 224 225 227 233 238 247
296 222 228 240 218 144 148 170 174 157 165 191 187 187 197 194 193 193 196 203 205 209 218 211 200 197 197 201 201 191 172 155 162 174 173 170 175 183 192 202 209 212 216 217 214 220 225 198 186 200 205 182 179 186 196 204 210 221 248 273 288 299 308 302 212 198 173 163 165 180 184 180 172 174 183 187 193 209 223 225 221 219 220 223 227 232 237 245
317 250 244 263 300 50 122 143 139 138 158 169 159 161 185 196 200 196 190 191 191 198 210 206 196 201 199 192 199 200 190 164 155 165 168 165 170 179 183 192 205 204 198 205 215 224 228 212 196 201 201 193 197 208 223 238 248 252 259 267 276 287 292 290 267 199 193 204 187 173 174 177 174 176 181 183 187 196 206 215 218 220 224 230 234 236 238 241
340 329 330 309 350 22 104 136 122 130 151 151 136 130 150 184 200 198 190 196 200 194 201 200 186 192 194 185 192 198 194 186 171 165 165 164 164 170 175 179 189 195 196 199 203 211 216 211 213 224 218 209 214 223 232 243 250 252 258 264 267 270 270 264 223 189 194 205 182 173 178 183 179 178 181 182 186 193 199 207 213 220 227 233 237 239 242 246
33 38 44 48 51 54 122 186 156 141 144 140 131 113 105 125 153 166 169 185 197 180 178 188 169 165 180 187 195 201 196 194 188 176 174 175 173 174 177 180 184 190 197 201 200 206 210 198 194 207 207 206 215 225 233 240 242 243 248 257 261 258 251 235 202 186 185 185 179 178 186 190 185 184 186 188 192 197 201 205 209 215 222 227 232 237 242 246
58 57 52 41 39 50 79 200 265 334 127 129 117 97 87 93 91 80 104 120 136 154 151 157 157 158 181 189 198 210 202 196 195 191 193 201 200 189 181 185 200 206 210 213 216 221 221 210 201 201 198 198 207 217 225 231 236 241 245 247 246 242 231 212 194 188 188 190 192 193 195 194 193 194 195 199 203 204 206 210 212 215 220 224 227 232 236 242
54 57 51 34 29 38 39 18 359 352 25 107 97 86 77 79 89 99 108 108 121 155 157 155 159 175 211 215 208 217 206 200 202 198 199 208 217 220 223 230 232 229 228 225 223 225 226 219 213 210 203 200 206 212 216 218 226 232 224 228 238 237 228 213 198 190 185 183 187 196 199 198 200 202 202 206 209 211 213 216 217 219 221 223 225 226 229 235
Height
3099 3098 3098 3097 3097 3097 3096 3096 3095 3095 3095 3095 3095 3095 3095 3095 3095 3095 3095 3095 3095 3094 3094 3093 3093 3093 3093 3092 3092 3092 3091 3091 3091 3091 3091 3091 3091 3091 3091 3091 3092 3094 3095 3096 3098 3099 3100 3101 3101 3103 3104 3106 3106 3108 3109 3110 3110 3111 3112 3112 3112 3112 3113 3114 3114 3116 3118 3118 3119 3119 3119 3120 3121 3121 3121 3121 3121 3121 3121 3122 3122 3122 3123 3123 3123 3123 3123 3122
3098 3097 3097 3096 3095 3095 3094 3094 3094 3094 3093 3093 3093 3093 3093 3093 3093 3093 3093 3093 3093 3093 3092 3092 3092 3092 3091 3091 3091 3090 3090 3090 3090 3090 3089 3089 3089 3089 3090 3090 3091 3092 3093 3094 3096 3097 3098 3099 3099 3101 3103 3104 3105 3106 3108 3108 3109 3110 3111 3111 3110 3111 3113 3113 3114 3116 3118 3118 3118 3118 3118 3119 3121 3121 3121 3121 3121 3121 3121 3122 3122 3122 3122 3123 3122 3122 3122 3121
3097 3096 3095 3095 3094 3093 3093 3093 3092 3092 3092 3092 3091 3091 3091 3091 3091 3091 3091 3092 3091 3091 3091 3091 3091 3090 3090 3090 3090 3089 3089 3088 3088 3088 3088 3088 3088 3088 3088 3089 3090 3091 3091 3092 3094 3095 3096 3096 3098 3100 3101 3103 3104 3105 3106 3107 3108 3109 3109 3108 3109 3112 3113 3113 3114 3116 3117 3118 3117 3117 3117 3118 3119 3120 3120 3120 3120 3121 3121 3122 3122 3122 3122 3122 3122 3122 3121 3121
3096 3095 3094 3093 3093 3092 3092 3091 3091 3090 3090 3090 3090 3090 3089 3089 3089 3090 3090 3090 3090 3089 3089 3089 3089 3089 3089 3089 3089 3088 3088 3087 3087 3087 3087 3087 3087 3087 3087 3088 3088 3089 3090 3091 3092 3093 3094 3095 3096 3098 3100 3102 3103 3103 3104 3105 3106 3107 3107 3107 3109 3112 3112 3112 3114 3115 3116 3117 3117 3116 3116 3116 3117 3118 3119 3119 3119 3120 3121 3121 3122 3122 3121 3121 3121 3121 3121 3121
3095 3094 3093 3093 3092 3091 3090 3090 3089 3089 3088 3088 3088 3088 3088 3088 3088 3088 3088 3088 3088 3088 3088 3088 3088 3088 3088 3088 3088 3087 3087 3087 3086 3086 3086 3086 3086 3086 3086 3086 3087 3088 3089 3089 3090 3091 3093 3094 3095 3097 3099 3101 3101 3102 3103 3104 3105 3105 3106 3107 3109 3111 3110 3111 3112 3113 3114 3115 3116 3116 3116 3116 3116 3117 3118 3118 3119 3120 3120 3121 3121 3121 3121 3120 3120 3120 3120 3120
3094 3093 3092 3092 3091 3090 3089 3089 3088 3087 3087 3087 3086 3086 3086 3086 3086 3086 3086 3086 3086 3086 3087 3087 3087 3087 3087 3087 3086 3086 3086 3086 3085 3085 3086 3085 3085 3085 3085 3085 3086 3087 3088 3088 3089 3090 3092 3093 3095 3097 3098 3099 3100 3101 3103 3104 3104 3104 3105 3106 3108 3109 3109 3110 3111 3112 3113 3114 3115 3116 3115 3116 3116 3117 3117 3118 3118 3119 3119 3120 3120 3120 3120 3120 3120 3120 3120 3120
3093 3092 3092 3091 3090 3089 3089 3088 3087 3086 3086 3085 3085 3085 3085 3085 3085 3085 3085 3085 3085 3085 3085 3085 3085 3085 3085 3085 3085 3085 3085 3085 3085 3085 3085 3085 3085 3085 3085 3085 3085 3086 3087 3088 3089 3090 3091 3093 3095 3096 3098 3099 3100 3101 3103 3103 3103 3104 3104 3106 3108 3109 3109 3109 3110 3111 3111 3112 3114 3114 3115 3115 3115 3116 3116 3116 3117 3117 3118 3118 3118 3118 3119 3119 3119 3120 3120 3120
3092 3091 3091 3090 3089 3088 3088 3087 3086 3085 3084 3084 3084 3083 3083 3083 3083 3083 3083 3083 3084 3084 3084 3084 3084 3084 3084 3084 3084 3084 3084 3084 3084 3084 3084 3084 3084 3084 3084 3084 3084 3085 3086 3087 3088 3089 3091 3093 3095 3096 3098 3099 3100 3101 3103 3103 3103 3103 3104 3106 3107 3107 3107 3108 3108 3109 3110 3110 3112 3113 3113 3114 3114 3114 3114 3115 3116 3116 3117 3117 3117 3117 3118 3118 3119 3119 3119 3120
3091 3090 3089 3089 3088 3087 3087 3086 3085 3084 3083 3083 3082 3082 3082 3082 3082 3082 3082 3082 3082 3082 3083 3083 3083 3083 3083 3083 3083 3083 3083 3083 3083 3083 3083 3083 3083 3083 3083 3084 3084 3084 3085 3086 3088 3089 3091 3093 3095 3096 3097 3098 3099 3101 3101 3101 3102 3102 3104 3105 3105 3105 3105 3106 3106 3107 3108 3108 3110 3111 3111 3113 3113 3113 3113 3114 3115 3115 3115 3115 3116 3116 3117 3117 3118 3118 3119 3119
3090 3089 3088 3088 3087 3086 3085 3085 3084 3083 3082 3082 3081 3081 3081 3081 3081 3081 3081 3081 3081 3081 3082 3082 3082 3082 3082 3082 3082 3082 3082 3082 3082 3082 3082 3082 3082 3082 3083 3083 3084 3084 3085 3086 3088 3090 3092 3094 3094 3095 3096 3097 3098 3099 3099 3100 3101 3101 3102 3102 3102 3103 3104 3104 3104 3105 3106 3106 3108 3109 3110 3111 3112 3111 3111 3112 3114 3114 3114 3114 3115 3115 3116 3116 3117 3117 3118 3119
3089 3088 3087 3086 3086 3085 3084 3084 3083 3082 3081 3081 3080 3080 3080 3080 3080 3080 3080 3080 3080 3080 3080 3081 3081 3081 3081 3081 3081 3081 3081 3081 3082 3082 3081 3081 3082 3082 3082 3082 3083 3084 3085 3087 3088 3090 3092 3092 3092 3093 3095 3096 3097 3098 3098 3099 3100 3101 3101 3101 3102 3102 3102 3103 3103 3104 3104 3105 3106 3107 3108 3109 3109 3109 3110 3111 3112 3113 3113 3113 3114 3114 3115 3115 3116 3117 3117 3118
3088 3087 3086 3085 3085 3084 3083 3083 3082 3081 3080 3080 3079 3079 3079 3079 3079 3079 3079 3079 3079 3079 3079 3080 3080 3080 3080 3080 3080 3080 3080 3081 3081 3081 3081 3081 3081 3081 3081 3082 3083 3084 3085 3087 3088 3089 3090 3091 3091 3093 3094 3094 3095 3097 3097 3098 3099 3100 3100 3100 3101 3101 3101 3101 3102 3103 3104 3104 3105 3106 3106 3106 3107 3107 3108 3110 3111 3112 3112 3112 3112 3113 3114 3115 3116 3116 3117 3117
3087 3086 3085 3084 3083 3083 3082 3081 3081 3080 3079 3079 3078 3077 3077 3077 3077 3078 3077 3078 3078 3078 3078 3079 3079 3079 3079 3079 3079 3079 3080 3080 3080 3080 3080 3080 3080 3080 3081 3081 3082 3083 3085 3086 3087 3088 3090 3090 3091 3092 3093 3093 3094 3095 3096 3097 3098 3099 3099 3099 3100 3099 3099 3100 3102 3102 3102 3103 3104 3105 3103 3102 3105 3106 3107 3108 3109 3110 3110 3110 3111 3113 3114 3114 3115 3116 3116 3117
3086 3085 3084 3083 3082 3082 3081 3080 3080 3079 3078 3078 3077 3076 3076 3076 3076 3076 3076 3076 3076 3077 3077 3077 3078 3078 3078 3078 3078 3078 3079 3080 3079 3079 3080 3080 3080 3080 3080 3081 3082 3083 3084 3085 3087 3088 3089 3090 3090 3091 3092 3092 3093 3094 3095 3096 3097 3098 3099 3099 3099 3098 3098 3099 3100 3100 3101 3101 3101 3103 3100 3099 3102 3104 3105 3107 3108 3109 3109 3109 3111 3112 3113 3114 3115 3115 3116 3116
3085 3084 3083 3083 3082 3081 3080 3079 3079 3078 3077 3076 3076 3075 3075 3074 3074 3075 3075 3075 3075 3075 3076 3076 3077 3077 3077 3077 3077 3077 3078 3079 3079 3079 3079 3079 3079 3079 3080 3081 3082 3083 3084 3085 3087 3088 3089 3089 3090 3091 3092 3092 3093 3094 3095 3096 3097 3097 3098 3098 3098 3098 3097 3097 3099 3099 3099 3099 3099 3100 3098 3097 3100 3102 3104 3105 3106 3107 3108 3108 3110 3111 3113 3113 3114 3114 3115 3115
3085 3084 3083 3082 3081 3080 3079 3078 3078 3077 3076 3075 3075 3074 3073 3073 3073 3073 3073 3073 3074 3074 3074 3075 3075 3075 3076 3076 3076 3076 3077 3078 3078 3078 3078 3078 3079 3079 3080 3081 3082 3083 3084 3086 3087 3088 3088 3088 3089 3090 3091 3092 3093 3093 3094 3095 3096 3097 3097 3097 3097 3097 3096 3096 3097 3097 3097 3097 3097 3097 3097 3097 3099 3100 3102 3103 3104 3106 3107 3107 3109 3111 3112 3113 3113 3114 3114 3114
3084 3083 3082 3081 3081 3080 3079 3077 3076 3076 3075 3074 3074 3073 3073 3072 3072 3071 3071 3072 3072 3072 3073 3073 3074 3074 3074 3075 3075 3075 3076 3077 3077 3078 3078 3078 3078 3078 3080 3081 3082 3083 3085 3086 3086 3087 3088 3088 3089 3090 3091 3092 3092 3093 3094 3095 3095 3096 3097 3097 3096 3096 3096 3095 3094 3094 3094 3094 3094 3095 3096 3096 3098 3099 3101 3102 3103 3104 3105 3107 3109 3110 3111 3112 3113 3113 3113 3114
3083 3082 3082 3081 3080 3079 3078 3077 3076 3075 3074 3073 3073 3072 3072 3071 3071 3071 3070 3070 3070 3071 3072 3072 3072 3073 3073 3073 3074 3074 3075 3075 3076 3077 3077 3077 3077 3078 3079 3081 3082 3083 3084 3085 3086 3087 3088 3088 3089 3089 3090 3090 3091 3092 3094 3094 3095 3096 3096 3096 3095 3095 3094 3094 3093 3092 3092 3092 3092 3094 3094 3095 3097 3099 3100 3101 3102 3104 3105 3106 3108 3109 3110 3111 3112 3112 3113 3113
3082 3081 3081 3080 3079 3078 3077 3076 3075 3074 3073 3073 3072 3072 3072 3071 3071 3070 3070 3070 3070 3070 3071 3071 3071 3071 3072 3072 3073 3073 3073 3074 3075 3076 3077 3077 3078 3078 3079 3080 3081 3082 3083 3084 3086 3087 3087 3088 3088 3088 3088 3089 3091 3092 3093 3094 3095 3095 3095 3095 3095 3094 3093 3093 3093 3091 3090 3090 3091 3093 3093 3094 3096 3098 3099 3100 3101 3103 3104 3105 3107 3109 3110 3111 3111 3111 3112 3112
3081 3080 3080 3079 3078 3078 3077 3076 3075 3074 3073 3072 3072 3072 3071 3070 3070 3069 3069 3069 3069 3069 3069 3069 3070 3071 3071 3071 3072 3072 3073 3073 3074 3075 3077 3077 3078 3078 3079 3080 3080 3081 3081 3083 3085 3086 3086 3087 3086 3086 3087 3089 3091 3092 3093 3094 3094 3094 3094 3094 3094 3093 3092 3092 3092 3090 3089 3089 3090 3092 3093 3093 3095 3098 3099 3100 3101 3102 3103 3105 3106 3108 3109 3110 3110 3110 3111 3112
3080 3079 3078 3078 3077 3077 3076 3075 3075 3074 3073 3072 3072 3072 3071 3070 3069 3069 3068 3068 3068 3067 3067 3068 3069 3070 3070 3071 3071 3071 3072 3072 3073 3074 3075 3076 3077 3078 3079 3079 3080 3080 3081 3083 3084 3085 3085 3085 3085 3086 3088 3090 3091 3092 3092 3093 3093 3093 3093 3093 3093 3093 3091 3091 3092 3090 3088 3089 3090 3091 3092 3093 3095 3097 3098 3099 3100 3100 3102 3104 3106 3107 3108 3109 3109 3109 3110 3111
3079 3078 3077 3077 3076 3076 3075 3074 3074 3073 3073 3072 3072 3071 3070 3070 3069 3068 3067 3066 3066 3066 3065 3066 3067 3068 3069 3070 3070 3070 3071 3072 3072 3073 3074 3075 3076 3077 3078 3079 3080 3081 3081 3082 3083 3084 3084 3084 3085 3086 3088 3089 3090 3091 3091 3092 3092 3092 3092 3092 3092 3092 3091 3091 3091 3090 3089 3090 3090 3091 3092 3093 3095 3096 3097 3097 3098 3099 3101 3103 3105 3107 3108 3108 3108 3109 3110 3111
3077 3077 3076 3075 3075 3075 3074 3074 3073 3073 3072 3072 3071 3070 3071 3070 3068 3067 3066 3065 3065 3064 3063 3064 3065 3067 3068 3069 3069 3069 3070 3072 3072 3072 3073 3074 3075 3077 3077 3078 3079 3081 3081 3081 3082 3083 3083 3083 3085 3086 3087 3088 3089 3090 3090 3091 3091 3091 3092 3092 3092 3091 3091 3090 3091 3091 3091 3091 3091 3092 3093 3094 3095 3096 3096 3096 3097 3099 3101 3103 3105 3107 3108 3108 3108 3109 3110 3110
3075 3075 3075 3074 3074 3073 3073 3073 3072 3072 3072 3071 3070 3070 3070 3070 3069 3068 3067 3064 3063 3063 3062 3062 3064 3065 3067 3068 3068 3069 3070 3071 3072 3072 3072 3073 3075 3076 3077 3078 3079 3079 3080 3081 3082 3082 3082 3083 3084 3085 3086 3087 3087 3088 3089 3089 3090 3090 3091 3091 3091 3091 3091 3090 3090 3091 3091 3091 3091 3092 3093 3094 3095 3095 3095 3095 3096 3098 3100 3102 3104 3106 3107 3108 3108 3108 3109 3110
3074 3073 3073 3073 3072 3072 3072 3072 3071 3071 3071 3070 3069 3070 3070 3070 3069 3068 3067 3064 3062 3061 3061 3061 3062 3064 3066 3066 3066 3069 3070 3070 3071 3071 3072 3072 3074 3075 3076 3077 3078 3078 3080 3081 3081 3081 3081 3082 3083 3084 3085 3085 3086 3086 3087 3088 3088 3089 3090 3090 3090 3090 3090 3090 3090 3090 3091 3091 3091 3092 3093 3095 3095 3095 3095 3096 3096 3097 3099 3101 3103 3104 3105 3107 3107 3108 3108 3109
3072 3072 3071 3071 3071 3071 3071 3071 3070 3070 3070 3069 3069 3070 3070 3070 3069 3068 3067 3064 3061 3060 3060 3060 3061 3062 3064 3064 3066 3068 3069 3069 3070 3071 3071 3072 3074 3075 3076 3077 3077 3078 3080 3080 3081 3081 3081 3082 3083 3083 3083 3084 3084 3084 3086 3087 3088 3088 3089 3089 3089 3089 3090 3090 3090 3090 3090 3091 3091 3091 3093 3094 3095 3095 3096 3097 3097 3098 3099 3100 3101 3103 3105 3106 3107 3107 3107 3108
3070 3070 3069 3069 3069 3069 3069 3069 3069 3069 3068 3068 3068 3070 3070 3070 3069 3068 3067 3065 3061 3059 3059 3060 3061 3061 3062 3064 3065 3067 3068 3068 3069 3069 3070 3072 3073 3075 3076 3076 3077 3078 3079 3080 3080 3080 3080 3081 3081 3081 3082 3082 3083 3083 3084 3086 3087 3088 3088 3088 3088 3088 3089 3090 3090 3090 3089 3090 3091 3091 3092 3092 3093 3095 3095 3096 3097 3098 3098 3099 3100 3102 3104 3105 3106 3106 3107 3108
3068 3067 3067 3067 3067 3067 3067 3067 3068 3067 3067 3067 3068 3069 3069 3070 3070 3068 3068 3066 3061 3059 3059 3059 3060 3061 3062 3063 3064 3065 3067 3067 3068 3069 3070 3071 3073 3074 3075 3075 3077 3078 3079 3079 3079 3079 3079 3080 3080 3080 3080 3081 3082 3082 3084 3085 3086 3087 3087 3087 3087 3088 3088 3089 3090 3090 3090 3090 3091 3091 3092 3092 3093 3094 3095 3095 3096 3096 3097 3098 3099 3101 3102 3103 3104 3105 3106 3108
3065 3065 3065 3065 3065 3065 3066 3066 3066 3066 3066 3066 3067 3068 3068 3069 3069 3068 3069 3067 3060 3058 3059 3059 3060 3061 3062 3063 3063 3065 3066 3067 3067 3068 3069 3070 3071 3073 3073 3075 3076 3077 3078 3078 3078 3078 3079 3079 3079 3079 3079 3079 3081 3082 3083 3084 3085 3085 3086 3086 3087 3087 3088 3089 3089 3090 3090 3091 3091 3092 3092 3093 3093 3093 3093 3094 3094 3095 3096 3097 3098 3099 3100 3102 3103 3105 3106 3108
3063 3062 3062 3063 3063 3063 3064 3064 3064 3064 3064 3065 3066 3067 3068 3069 3068 3069 3069 3065 3059 3059 3059 3059 3060 3061 3061 3062 3062 3063 3065 3066 3067 3067 3069 3069 3070 3071 3072 3073 3075 3076 3076 3077 3077 3077 3078 3078 3079 3079 3079 3079 3081 3082 3083 3083 3084 3085 3085 3085 3086 3087 3087 3088 3089 3089 3090 3091 3091 3091 3092 3093 3093 3092 3092 3092 3093 3094 3094 3095 3096 3097 3098 3100 3102 3104 3106 3107
3060 3059 3059 3060 3060 3061 3062 3062 3062 3062 3063 3064 3065 3065 3066 3067 3068 3068 3067 3061 3058 3059 3059 3059 3060 3060 3061 3061 3061 3062 3063 3064 3065 3066 3067 3068 3069 3070 3071 3072 3073 3075 3075 3075 3076 3076 3077 3077 3078 3078 3078 3079 3081 3081 3082 3082 3083 3084 3084 3084 3085 3086 3086 3087 3087 3087 3089 3091 3091 3091 3091 3092 3092 3091 3090 3091 3091 3092 3093 3094 3095 3094 3095 3098 3101 3103 3105 3106
3057 3056 3056 3057 3057 3058 3060 3060 3060 3060 3061 3062 3063 3064 3065 3066 3066 3064 3062 3059 3059 3059 3058 3059 3059 3059 3059 3060 3060 3061 3062 3063 3064 3065 3065 3066 3067 3068 3069 3070 3071 3073 3073 3073 3074 3075 3076 3076 3077 3077 3077 3078 3080 3080 3080 3081 3082 3082 3083 3083 3084 3085 3086 3087 3087 3088 3089 3089 3089 3090 3090 3091 3090 3090 3089 3089 3090 3090 3092 3093 3093 3093 3094 3097 3100 3102 3104 3106
3054 3053 3053 3054 3055 3056 3057 3057 3057 3058 3059 3060 3061 3062 3063 3064 3062 3059 3058 3059 3059 3058 3058 3058 3057 3057 3058 3058 3059 3060 3061 3062 3063 3064 3064 3065 3065 3066 3067 3068 3069 3071 3071 3072 3073 3073 3074 3075 3076 3076 3076 3077 3078 3079 3079 3079 3080 3081 3081 3082 3083 3084 3086 3088 3089 3089 3088 3088 3088 3089 3089 3089 3089 3089 3089 3088 3088 3089 3090 3091 3092 3093 3094 3096 3098 3100 3102 3104
3050 3050 3050 3051 3052 3053 3054 3054 3054 3056 3057 3058 3059 3060 3061 3060 3058 3057 3057 3058 3057 3057 3057 3056 3056 3056 3056 3057 3058 3059 3059 3060 3061 3062 3063 3063 3063 3064 3065 3067 3068 3069 3070 3071 3071 3072 3072 3073 3074 3075 3075 3076 3077 3078 3078 3078 3078 3079 3079 3080 3081 3081 3083 3085 3086 3086 3085 3086 3087 3088 3088 3088 3088 3088 3088 3088 3087 3088 3089 3090 3091 3092 3093 3094 3096 3098 3100 3102
3047 3047 3047 3048 3049 3050 3051 3051 3051 3053 3054 3055 3057 3057 3057 3056 3056 3056 3056 3057 3057 3057 3056 3055 3055 3055 3055 3056 3057 3057 3057 3057 3059 3060 3061 3061 3062 3062 3063 3065 3066 3067 3068 3069 3070 3070 3071 3071 3072 3073 3074 3074 3075 3076 3077 3077 3077 3077 3078 3078 3079 3079 3080 3081 3083 3083 3083 3085 3086 3086 3087 3087 3088 3088 3088 3088 3088 3087 3088 3089 3090 3091 3092 3093 3095 3096 3097 3099
3044 3044 3044 3045 3046 3047 3047 3048 3049 3050 3051 3053 3054 3053 3052 3053 3054 3055 3056 3056 3056 3055 3055 3054 3054 3054 3054 3055 3056 3057 3056 3056 3057 3058 3059 3059 3060 3061 3062 3063 3064 3065 3066 3067 3068 3068 3069 3070 3071 3072 3072 3073 3073 3074 3075 3075 3075 3076 3076 3076 3077 3078 3078 3080 3081 3083 3083 3084 3085 3086 3087 3087 3088 3088 3088 3088 3088 3088 3088 3089 3089 3090 3090 3090 3092 3093 3095 3097
3041 3041 3041 3041 3041 3042 3043 3044 3046 3047 3048 3050 3050 3049 3050 3052 3053 3054 3054 3054 3054 3054 3054 3054 3054 3054 3054 3054 3054 3055 3056 3056 3056 3057 3057 3058 3058 3059 3060 3061 3062 3063 3064 3065 3066 3066 3067 3068 3069 3070 3071 3071 3072 3073 3073 3074 3074 3074 3074 3075 3075 3076 3077 3078 3081 3084 3085 3086 3085 3085 3086 3087 3087 3087 3087 3088 3089 3089 3089 3089 3090 3090 3090 3090 3091 3093 3096 3098
3039 3038 3037 3036 3037 3039 3040 3041 3043 3044 3045 3046 3047 3047 3048 3050 3051 3052 3053 3053 3053 3054 3053 3054 3053 3053 3053 3053 3053 3055 3055 3055 3055 3056 3056 3057 3057 3058 3059 3060 3060 3061 3062 3064 3064 3064 3066 3067 3068 3069 3069 3069 3070 3071 3072 3072 3073 3073 3073 3074 3074 3075 3076 3076 3079 3082 3085 3087 3086 3085 3086 3086 3086 3085 3085 3086 3088 3088 3089 3090 3090 3091 3092 3092 3093 3095 3097 3098
3036 3035 3034 3033 3035 3036 3037 3039 3040 3042 3043 3043 3044 3045 3046 3047 3049 3051 3051 3052 3052 3053 3052 3052 3053 3052 3052 3052 3052 3053 3053 3053 3053 3054 3055 3055 3056 3056 3057 3058 3059 3059 3060 3062 3062 3063 3064 3065 3066 3067 3068 3068 3069 3070 3071 3071 3072 3072 3073 3073 3073 3073 3074 3075 3077 3078 3080 3085 3087 3086 3086 3086 3084 3084 3084 3085 3086 3087 3088 3089 3090 3091 3092 3093 3094 3095 3096 3097
3034 3033 3031 3032 3033 3034 3035 3037 3038 3039 3040 3040 3042 3043 3044 3046 3047 3049 3050 3050 3050 3051 3051 3050 3051 3051 3051 3052 3051 3051 3051 3052 3052 3052 3053 3053 3054 3054 3055 3056 3058 3058 3059 3060 3061 3062 3063 3064 3065 3066 3067 3067 3068 3069 3070 3071 3072 3072 3072 3072 3072 3072 3073 3074 3076 3077 3077 3081 3084 3085 3086 3085 3083 3083 3083 3084 3086 3087 3088 3089 3089 3090 3091 3093 3094 3095 3096 3098
3033 3031 3030 3031 3032 3032 3033 3035 3036 3037 3038 3039 3040 3042 3043 3044 3045 3047 3048 3048 3048 3048 3048 3048 3049 3049 3049 3050 3050 3050 3050 3050 3051 3051 3052 3052 3053 3053 3054 3055 3056 3058 3059 3060 3060 3061 3062 3062 3064 3066 3066 3066 3067 3069 3069 3070 3071 3070 3070 3071 3071 3072 3072 3073 3075 3076 3076 3078 3080 3082 3083 3083 3082 3083 3083 3084 3085 3086 3087 3088 3089 3090 3092 3093 3094 3095 3096 3097
3032 3031 3029 3030 3031 3031 3032 3033 3034 3035 3037 3038 3039 3041 3042 3043 3043 3044 3045 3046 3046 3046 3046 3046 3047 3047 3047 3048 3048 3049 3048 3048 3049 3051 3051 3051 3052 3053 3054 3054 3056 3057 3058 3059 3060 3060 3061 3062 3063 3065 3066 3066 3067 3068 3069 3069 3070 3069 3069 3070 3070 3071 3071 3072 3073 3074 3075 3077 3078 3079 3081 3081 3082 3082 3083 3084 3085 3086 3087 3088 3089 3091 3092 3093 3094 3095 3095 3096
3032 3030 3029 3029 3030 3030 3031 3033 3034 3035 3036 3037 3039 3040 3041 3041 3041 3042 3043 3044 3044 3044 3044 3045 3045 3046 3046 3046 3047 3047 3046 3046 3048 3050 3051 3051 3051 3052 3053 3054 3055 3056 3057 3057 3059 3060 3060 3061 3062 3064 3065 3066 3067 3067 3068 3069 3069 3069 3069 3069 3070 3070 3070 3071 3071 3072 3074 3075 3077 3078 3080 3081 3081 3082 3083 3083 3084 3085 3087 3088 3089 3090 3091 3092 3093 3094 3094 3094
3031 3030 3029 3029 3029 3030 3031 3032 3032 3034 3035 3036 3038 3039 3039 3039 3040 3041 3041 3041 3041 3042 3042 3043 3044 3044 3044 3045 3045 3045 3045 3045 3046 3048 3050 3050 3050 3051 3051 3052 3053 3054 3055 3056 3057 3058 3059 3060 3061 3062 3065 3067 3067 3067 3067 3068 3068 3068 3069 3069 3069 3069 3070 3070 3071 3072 3073 3074 3075 3077 3078 3079 3080 3081 3082 3083 3084 3085 3086 3087 3088 3089 3090 3091 3091 3092 3092 3093
3030 3029 3029 3028 3028 3029 3030 3030 3030 3032 3033 3034 3036 3037 3037 3038 3039 3039 3039 3039 3039 3040 3041 3042 3042 3043 3043 3043 3044 3044 3044 3044 3044 3045 3048 3049 3050 3050 3050 3051 3052 3053 3054 3055 3055 3057 3058 3058 3059 3060 3062 3066 3067 3066 3065 3066 3068 3069 3069 3069 3069 3069 3069 3070 3071 3072 3072 3073 3074 3075 3076 3077 3078 3080 3081 3082 3083 3084 3085 3086 3087 3088 3089 3090 3090 3091 3091 3092
3029 3029 3028 3028 3027 3027 3027 3028 3029 3031 3032 3034 3035 3035 3036 3037 3037 3037 3037 3037 3038 3039 3040 3040 3041 3042 3042 3042 3043 3043 3044 3043 3043 3044 3046 3048 3049 3049 3049 3050 3051 3052 3053 3053 3054 3056 3056 3057 3057 3058 3059 3061 3062 3063 3065 3066 3068 3069 3069 3069 3069 3069 3069 3069 3070 3071 3071 3072 3073 3074 3074 3075 3077 3079 3080 3081 3083 3083 3084 3085 3086 3087 3088 3089 3089 3090 3091 3091
3028 3028 3028 3028 3027 3026 3026 3027 3029 3030 3032 3033 3033 3034 3034 3035 3036 3036 3036 3036 3036 3037 3038 3039 3040 3040 3040 3041 3041 3042 3043 3043 3043 3043 3045 3047 3047 3048 3048 3049 3050 3050 3051 3052 3053 3055 3056 3056 3057 3057 3058 3060 3061 3063 3065 3066 3067 3068 3068 3068 3068 3068 3068 3069 3070 3071 3071 3071 3072 3073 3074 3075 3076 3077 3079 3080 3081 3083 3084 3084 3085 3086 3087 3088 3088 3089 3090 3091
3029 3028 3028 3028 3028 3027 3028 3029 3029 3030 3030 3031 3032 3033 3033 3034 3035 3035 3036 3036 3036 3036 3037 3038 3039 3039 3040 3040 3040 3041 3042 3043 3043 3043 3044 3045 3046 3047 3047 3048 3048 3049 3050 3051 3052 3054 3055 3056 3056 3057 3059 3060 3061 3062 3064 3065 3065 3066 3066 3067 3067 3067 3068 3069 3070 3071 3071 3071 3072 3073 3073 3074 3074 3075 3076 3078 3079 3080 3082 3083 3084 3084 3085 3086 3087 3088 3089 3089
3029 3029 3029 3029 3029 3029 3029 3030 3030 3030 3030 3030 3031 3032 3033 3033 3034 3034 3035 3035 3035 3036 3036 3037 3038 3038 3039 3039 3040 3040 3041 3043 3044 3044 3044 3045 3046 3046 3047 3047 3048 3048 3049 3050 3051 3053 3054 3054 3055 3057 3059 3060 3060 3061 3062 3063 3063 3064 3065 3065 3066 3066 3067 3068 3069 3070 3071 3071 3071 3072 3073 3074 3074 3074 3075 3076 3078 3079 3080 3081 3082 3083 3084 3085 3086 3086 3087 3088
3031 3031 3031 3031 3031 3031 3031 3031 3030 3030 3030 3030 3030 3031 3032 3033 3033 3034 3035 3035 3035 3035 3036 3037 3037 3038 3038 3039 3039 3040 3041 3042 3043 3044 3045 3045 3045 3046 3046 3046 3047 3047 3048 3049 3050 3051 3052 3053 3054 3056 3057 3058 3059 3060 3060 3061 3062 3063 3064 3064 3065 3066 3066 3067 3068 3069 3070 3071 3071 3072 3073 3073 3073 3074 3075 3076 3076 3077 3078 3079 3080 3081 3082 3083 3084 3084 3085 3086
3033 3033 3033 3033 3032 3032 3032 3032 3031 3032 3031 3030 3030 3032 3033 3033 3033 3034 3034 3035 3035 3035 3035 3036 3037 3038 3038 3039 3039 3040 3040 3041 3042 3043 3044 3045 3046 3046 3046 3046 3046 3047 3047 3048 3049 3050 3051 3053 3054 3055 3056 3057 3058 3059 3059 3060 3061 3062 3063 3063 3064 3065 3065 3066 3067 3068 3069 3070 3070 3071 3072 3072 3072 3073 3074 3074 3075 3076 3077 3078 3079 3079 3080 3081 3081 3082 3083 3083
3035 3035 3035 3034 3034 3033 3033 3032 3032 3032 3032 3032 3032 3033 3034 3034 3034 3034 3034 3034 3035 3035 3035 3036 3037 3037 3038 3038 3039 3039 3040 3040 3041 3042 3043 3044 3045 3045 3046 3046 3047 3047 3047 3048 3049 3050 3051 3052 3053 3054 3055 3056 3057 3058 3059 3060 3061 3061 3062 3062 3063 3064 3064 3065 3066 3067 3067 3068 3069 3069 3070 3070 3071 3071 3072 3073 3073 3074 3075 3076 3077 3077 3078 3078 3079 3079 3080 3081